Date String (YYYY-MM-DD hh:mm:ss) UTC,Instrument flags,absolute air pressure of the measurement (hPa),sample flow rate (lpm),inlet stack bypass flow (lpm),air temperature of the measurement (°C),ambient temperature measured by the external sensor (°C),aerosol sample conditioner tube jacket temperature (°C),OPC LED temperature (°C),internal box temperature (°C),relative humidity of the measurement (%),span deviation,mass concentration of particles derived from Lorenz-Mie calculation of OPC scattering (μg/m³),mass concentration of particles derived from Lorenz-Mie calculation of OPC scattering (μg/m³),mass concentration of particles derived from Lorenz-Mie calculation of OPC scattering (μg/m³)
DateTimeUTC,F1_M11,P_M11,Q1_M11,Q2_M11,T1_M11,T2_M11,T3_M11,T4_M11,T5_M11,U1_M11,ZSPAN_M11,X2_M11,X0_M11,X1_M11
2023-09-10 08:00:00,SystemResetWarning,0836.5,5.00,000.00,028.5,027.4,000.0,036.8,030.1,29.9,0001.1,0018.67,0040.76,0015.95
2023-09-10 08:01:00,SystemResetWarning,0836.5,5.00,000.00,028.5,027.3,000.0,036.8,030.1,29.9,0001.2,0018.66,0040.62,0015.95
2023-09-10 08:02:00,SystemResetWarning,0836.5,5.01,000.00,028.5,025.7,000.0,036.7,029.9,29.9,0001.3,0018.67,0041.33,0015.91
2023-09-10 08:03:00,SystemResetWarning,0836.5,5.00,000.00,028.4,024.6,000.0,036.7,029.8,30.1,0001.5,0018.64,0041.46,0015.91
2023-09-10 08:04:00,SystemResetWarning,0836.5,5.01,000.00,028.3,024.6,000.0,036.6,029.6,30.3,0001.5,0018.54,0042.04,0015.89
2023-09-10 08:05:00,SystemResetWarning,0836.5,5.01,000.00,028.2,024.8,000.0,036.6,029.4,30.6,0001.5,0018.44,0041.66,0015.90
2023-09-10 08:06:00,SystemResetWarning,0836.5,4.99,000.00,028.1,025.2,000.0,036.6,029.4,30.6,0001.5,0018.38,0041.39,0015.89
2023-09-10 08:07:00,SystemResetWarning,0836.5,5.00,000.00,028.1,025.5,000.0,036.6,029.5,30.5,0001.4,0018.42,0039.23,0015.91
2023-09-10 08:08:00,SystemResetWarning,0836.4,5.01,000.00,028.1,025.8,000.0,036.6,029.5,30.5,0001.3,0018.43,0038.01,0015.91
2023-09-10 08:09:00,SystemResetWarning,0836.4,4.99,000.00,028.1,026.1,000.0,036.6,029.6,30.3,0001.2,0018.47,0036.69,0015.88
2023-09-10 08:10:00,SystemResetWarning,0836.4,4.99,000.00,028.1,026.3,000.0,036.6,029.6,30.4,0001.2,0018.42,0035.95,0015.83
2023-09-10 08:11:00,SystemResetWarning,0836.4,5.00,000.00,028.1,026.5,000.0,036.6,029.7,30.6,0001.2,0018.42,0035.71,0015.76
2023-09-10 08:12:00,SystemResetWarning,0836.4,5.00,000.00,028.1,026.6,000.0,036.6,029.7,30.5,0001.0,0018.32,0035.39,0015.71
2023-09-10 08:13:00,SystemResetWarning,0836.3,5.00,000.00,028.2,026.8,000.0,036.6,029.7,30.3,0001.2,0018.37,0035.39,0015.73
2023-09-10 08:14:00,SystemResetWarning,0836.3,5.00,000.00,028.2,026.9,000.0,036.6,029.8,30.1,0001.0,0018.43,0035.54,0015.76
2023-09-10 08:15:00,SystemResetWarning,0836.2,5.00,000.00,028.2,026.9,000.0,036.7,029.8,29.9,0000.9,0018.41,0034.35,0015.76
2023-09-10 08:16:00,SystemResetWarning,0836.3,5.00,000.00,028.2,027.0,000.0,036.7,029.8,29.9,0001.0,0018.48,0033.98,0015.78
2023-09-10 08:17:00,SystemResetWarning,0836.2,5.00,000.00,028.3,027.1,000.0,036.7,029.9,29.9,0001.0,0018.44,0033.10,0015.79
2023-09-10 08:18:00,SystemResetWarning,0836.3,5.00,000.00,028.3,027.1,000.0,036.7,029.9,30.0,0001.0,0018.40,0033.29,0015.81
2023-09-10 08:19:00,SystemResetWarning,0836.3,5.01,000.00,028.3,027.2,000.0,036.7,029.9,30.0,0001.0,0018.46,0034.12,0015.82
2023-09-10 08:20:00,SystemResetWarning,0836.3,4.99,000.00,028.4,027.2,000.0,036.7,030.0,30.2,0001.0,0018.49,0034.73,0015.87
2023-09-10 08:21:00,SystemResetWarning,0836.3,4.99,000.00,028.4,027.3,000.0,036.7,030.0,30.2,0001.1,0018.53,0034.95,0015.90
2023-09-10 08:22:00,SystemResetWarning,0836.4,4.99,000.00,028.4,027.3,000.0,036.8,030.1,30.2,0001.2,0018.60,0034.51,0015.98
2023-09-10 08:23:00,SystemResetWarning,0836.3,5.00,000.00,028.4,027.0,000.0,036.8,030.1,30.2,0001.3,0018.80,0034.09,0016.08
2023-09-10 08:24:00,SystemResetWarning,0836.4,5.00,000.00,028.4,025.3,000.0,036.7,029.8,30.1,0001.3,0018.89,0034.39,0016.11
2023-09-10 08:25:00,SystemResetWarning,0836.3,5.01,000.00,028.3,024.4,000.0,036.6,029.6,30.2,0001.4,0018.89,0035.14,0016.12
2023-09-10 08:26:00,SystemResetWarning,0836.4,5.01,000.00,028.2,024.5,000.0,036.6,029.5,30.4,0001.5,0018.94,0035.77,0016.15
2023-09-10 08:27:00,SystemResetWarning,0836.4,4.99,000.00,028.1,024.7,000.0,036.6,029.4,30.6,0001.4,0018.97,0036.24,0016.14
2023-09-10 08:28:00,SystemResetWarning,0836.4,4.99,000.00,028.1,025.1,000.0,036.6,029.4,30.7,0001.5,0019.01,0037.08,0016.18
2023-09-10 08:29:00,SystemResetWarning,0836.4,5.00,000.00,028.1,025.5,000.0,036.6,029.4,30.8,0001.7,0018.98,0037.68,0016.18
2023-09-10 08:30:00,SystemResetWarning,0836.4,5.01,000.00,028.1,025.8,000.0,036.6,029.5,30.9,0001.8,0018.91,0036.81,0016.17
2023-09-10 08:31:00,SystemResetWarning,0836.4,5.01,000.00,028.1,026.0,000.0,036.6,029.5,30.7,0001.8,0018.79,0037.08,0016.10
2023-09-10 08:32:00,SystemResetWarning,0836.3,5.00,000.00,028.1,026.2,000.0,036.6,029.6,30.6,0001.8,0018.69,0037.22,0016.03
2023-09-10 08:33:00,SystemResetWarning,0836.4,4.99,000.00,028.1,026.4,000.0,036.6,029.6,30.7,0001.7,0018.66,0037.39,0015.93
2023-09-10 08:34:00,SystemResetWarning,0836.3,4.99,000.00,028.1,026.6,000.0,036.6,029.6,30.9,0001.7,0018.58,0037.25,0015.87
2023-09-10 08:35:00,SystemResetWarning,0836.3,5.00,000.00,028.1,026.7,000.0,036.6,029.7,30.8,0001.5,0018.45,0037.13,0015.82
2023-09-10 08:36:00,SystemResetWarning,0836.3,5.01,000.00,028.1,026.8,000.0,036.6,029.7,30.7,0001.3,0018.34,0035.90,0015.81
2023-09-10 08:37:00,SystemResetWarning,0836.2,4.99,000.00,028.2,026.9,000.0,036.6,029.7,30.7,0001.4,0018.40,0036.27,0015.80
2023-09-10 08:38:00,SystemResetWarning,0836.2,5.00,000.00,028.2,027.0,000.0,036.6,029.8,30.7,0001.6,0018.37,0035.77,0015.81
2023-09-10 08:39:00,SystemResetWarning,0836.2,5.00,000.00,028.2,027.0,000.0,036.6,029.8,30.8,0001.5,0018.32,0035.06,0015.81
2023-09-10 08:40:00,SystemResetWarning,0836.2,5.01,000.00,028.2,027.1,000.0,036.6,029.8,30.8,0001.3,0018.40,0034.37,0015.81
2023-09-10 08:41:00,SystemResetWarning,0836.2,5.01,000.00,028.3,027.1,000.0,036.6,029.9,30.7,0001.1,0018.44,0034.69,0015.81
2023-09-10 08:42:00,SystemResetWarning,0836.3,5.00,000.00,028.3,027.2,000.0,036.7,029.9,30.2,0001.1,0018.46,0034.23,0015.84
2023-09-10 08:43:00,SystemResetWarning,0836.3,4.99,000.00,028.3,027.2,000.0,036.7,030.0,29.9,0000.9,0018.50,0033.00,0015.87
2023-09-10 08:44:00,SystemResetWarning,0836.2,4.99,000.00,028.3,027.3,000.0,036.7,030.0,30.0,0001.0,0018.49,0032.67,0015.92
2023-09-10 08:45:00,SystemResetWarning,0836.3,4.99,000.00,028.4,027.3,000.0,036.7,030.0,30.0,0001.0,0018.45,0032.39,0015.97
2023-09-10 08:46:00,SystemResetWarning,0836.3,5.00,000.00,028.4,027.3,000.0,036.7,030.0,30.0,0001.1,0018.43,0032.21,0015.97
2023-09-10 08:47:00,SystemResetWarning,0836.2,5.00,000.00,028.4,027.4,000.0,036.8,030.0,30.0,0001.2,0018.49,0031.28,0015.96
2023-09-10 08:48:00,SystemResetWarning,0836.2,5.01,000.00,028.5,027.4,000.0,036.8,030.1,30.1,0001.0,0018.38,0030.73,0015.92
2023-09-10 08:49:00,SystemResetWarning,0836.2,4.99,000.00,028.5,026.4,000.0,036.7,030.0,30.2,0000.8,0018.33,0031.73,0015.90
2023-09-10 08:50:00,SystemResetWarning,0836.1,5.00,000.00,028.4,024.8,000.0,036.7,029.7,30.3,0001.1,0018.25,0031.72,0015.81
2023-09-10 08:51:00,SystemResetWarning,0836.2,5.00,000.00,028.3,024.4,000.0,036.6,029.6,30.4,0001.3,0018.17,0032.51,0015.73
2023-09-10 08:52:00,SystemResetWarning,0836.2,5.02,000.00,028.2,024.6,000.0,036.6,029.4,30.7,0001.1,0018.12,0032.39,0015.67
2023-09-10 08:53:00,SystemResetWarning,0836.1,4.99,000.00,028.1,024.9,000.0,036.6,029.4,30.9,0001.2,0018.10,0032.16,0015.64
2023-09-10 08:54:00,SystemResetWarning,0836.1,5.00,000.00,028.1,025.3,000.0,036.6,029.5,31.0,0001.5,0018.12,0032.63,0015.62
2023-09-10 08:55:00,SystemResetWarning,0836.1,5.00,000.00,028.1,025.6,000.0,036.6,029.5,31.0,0001.6,0018.14,0033.41,0015.61
2023-09-10 08:56:00,SystemResetWarning,0836.1,4.99,000.00,028.1,025.9,000.0,036.6,029.5,31.0,0001.5,0018.15,0034.10,0015.60
2023-09-10 08:57:00,SystemResetWarning,0836.1,4.99,000.00,028.1,026.2,000.0,036.6,029.6,30.9,0001.5,0018.19,0034.11,0015.61
2023-09-10 08:58:00,SystemResetWarning,0836.1,5.00,000.00,028.1,026.4,000.0,036.6,029.6,30.9,0001.5,0018.15,0034.35,0015.62
2023-09-10 08:59:00,SystemResetWarning,0836.1,5.00,000.00,028.1,026.5,000.0,036.6,029.7,30.8,0001.5,0018.17,0034.74,0015.63
